星链-31447 (STARLINK-31447 )

导读

STARLINK-31447是美国太空探索技术公司(SpaceX)于2024年3月24日发射的星链低轨通信卫星,隶属于星链互联网星座项目。该卫星运行在近地轨道,旨在为全球尤其是网络欠发达地区提供高速低延迟的宽带互联网服务,是SpaceX构建全球覆盖卫星通信网络的重要组成部分,推动了全球互联基础设施建设。

Basic Information
目录编号:
59302
目录名称:
STARLINK-31447
国际标识:
2024-056G
轨道中心:
EARTH
卫星名称:
星链-31447
卫星全名:
星链-31447 (STARLINK-31447 )
卫星状态:
在轨 (已飞行894 天)
发射日期:
2024-03-24 UTC
国别 :
美国 (US)
星等 :
--
Orbit Information
数据来源 国际轨道数据
星历时间: 2026-09-04T12:34:58+0800
7小时前
查看轨道信息
半长轴: 6861.194km
偏心率: 0.0000953
轨道倾角: 43.002°
近地点辐角 273.707°
升交点赤经 302.641°
平近点角 86.367°
近地点: 482.403km
远地点: 483.711km
周期: 94.267分钟
每日圈数: 15.275775
Detailed Information
固有亮度:
5
最大亮度:
0.3
卫星平台:
Starlink v2.0 mini
覆盖范围:
全球
运营商:
太空探索技术公司
运营商所在国:
美国
制造商(研发单位):
太空探索技术公司
制造商所在国:
美国
使用方式:
暂无
Satellite Introduction
星链(Starlink)计划是由太空探索技术公司(SpaceX)提出的一个巨型低轨卫星互联网星座项目,计划在2019年至2024年间在太空搭建由约1.2万颗卫星组成的“星链”网络,其中1584颗将部署在地球上空550千米处的近地轨道,并从2020年开始工作。该卫星仍在工作。
2D Orbit Map
3D Orbit Map
Orbit Altitude Analysis Chart
Orbit Inclination Analysis Chart
Orbit Comprehensive Analysis Chart
View Comprehensive Chart
Conjunction Data List
Event ID Objects TCA Miss Dist (km) Collision Risk Probability Collision Risk Index (CRI) Action
CDM_260904-164605-930206-792921
2026-09-04T
16:46:01+0000
0.250 km
中距离
2.552971E-4 高风险 0.83
CDM_260904-173305-930206-792921
2026-09-04T
17:33:06+0000
0.581 km
远距离
3.327142E-5 中风险 0.65
CDM_260904-190705-930206-792921
2026-09-04T
19:07:15+0000
1.796 km
极远距离
9.303456E-7 极低风险 0.34
CDM_260904-151105-930206-792921
2026-09-04T
15:11:52+0000
2.238 km
极远距离
5.825378E-7 极低风险 0.3
CDM_260904-182005-930206-792921
2026-09-04T
18:20:11+0000
2.314 km
极远距离
5.499605E-7 极低风险 0.3
CDM_260904-155805-930206-792921
2026-09-04T
15:58:57+0000
2.803 km
极远距离
4.206898E-7 极低风险 0.27